Wharton, TX

1:41 AM CDT on May 25, 2017 (GMT -0500)
Wharton Regional

Weather History for KARM - September, 2012

Change the Weather History Date:

Friday, September 14, 2012

  Actual Average (KPSX) Record (KPSX)
Temperature  
Mean Temperature 79 °F -  
Max Temperature 87 °F 88 °F 94 °F (1954)
Min Temperature 71 °F 72 °F 58 °F (1945)
Cooling Degree Days 14    
Growing Degree Days 29 (Base 50)    
Moisture  
Dew Point 70 °F    
Average Humidity 86    
Maximum Humidity 94    
Minimum Humidity 55    
Precipitation  
Precipitation 0.03 in - - ()
Sea Level Pressure  
Sea Level Pressure 30.12 in    
Wind  
Wind Speed 4 mph (North)    
Max Wind Speed 13 mph    
Max Gust Speed 16 mph    
Visibility 7 miles    
Events Rain , Thunderstorm    
Averages and records for this station are not official NWS values.
T = Trace of Precipitation, MM = Missing Value Source: NWS Daily Summary

Daily Weather History Graph

Daily Weather History Graph

Search for Another Location

Airport or City:

Trip Planner

Search our weather history database for the weather conditions in past years. The results will help you decide how hot, cold, wet, or windy it might be!

Date:

Astronomy

Sep. 14, 2012 Rise Set
Actual Time 7:09 AM CDT 7:30 PM CDT
Civil Twilight 6:45 AM CDT 7:54 PM CDT
Nautical Twilight 6:17 AM CDT 8:21 PM CDT
Astronomical Twilight 5:49 AM CDT 8:49 PM CDT
Moon 5:38 AM CDT (9/14) 6:26 PM CDT (9/14)
Length of Visible Light 13h 08m
Length of Day
12h 21m
Waning Crescent, 2% of the Moon is Illuminated
Sep 14
Waning Crescent
Sep 15
New
Sep 22
First Quarter
Sep 29
Full
Oct 8
Last Quarter

Hourly Weather History & Observations

Time (CDT) Temp. Heat Index Dew Point Humidity Pressure Visibility Wind Dir Wind Speed Gust Speed Precip Events Conditions
12:15 AM 73.4 °F - 69.8 °F 88% 30.13 in 10.0 mi NE 3.5 mph - N/A   Clear
12:35 AM 73.4 °F - 69.8 °F 88% 30.13 in 10.0 mi NE 3.5 mph - N/A   Clear
12:55 AM 73.4 °F - 69.8 °F 88% 30.12 in 10.0 mi NE 3.5 mph - N/A   Clear
1:15 AM 73.4 °F - 69.8 °F 88% 30.12 in 10.0 mi Calm Calm - N/A   Clear
1:35 AM 73.4 °F - 69.8 °F 88% 30.11 in 5.0 mi Calm Calm - 0.01 in   Clear
1:55 AM 71.6 °F - 69.8 °F 94% 30.11 in 10.0 mi Calm Calm - 0.01 in   Clear
2:15 AM 71.6 °F - 69.8 °F 94% 30.11 in 5.0 mi North 3.5 mph - N/A   Clear
2:35 AM 71.6 °F - 69.8 °F 94% 30.10 in 3.0 mi Calm Calm - N/A   Clear
2:55 AM 71.6 °F - 69.8 °F 94% 30.10 in 2.5 mi NE 3.5 mph - N/A   Drizzle
3:15 AM 71.6 °F - 69.8 °F 94% 30.10 in 3.0 mi Calm Calm - N/A   Light Drizzle
3:35 AM 71.6 °F - 69.8 °F 94% 30.09 in 3.0 mi Calm Calm - N/A   Clear
3:55 AM 71.6 °F - 69.8 °F 94% 30.09 in 3.0 mi Calm Calm - N/A   Clear
4:15 AM 71.6 °F - 69.8 °F 94% 30.09 in 5.0 mi Calm Calm - N/A   Clear
4:35 AM 71.6 °F - 69.8 °F 94% 30.09 in 3.0 mi Calm Calm - N/A   Clear
4:55 AM 71.6 °F - 69.8 °F 94% 30.08 in 4.0 mi NNW 3.5 mph - N/A   Clear
5:15 AM 71.6 °F - 69.8 °F 94% 30.09 in 4.0 mi North 4.6 mph - N/A   Clear
5:35 AM 71.6 °F - 69.8 °F 94% 30.09 in 5.0 mi North 3.5 mph - N/A   Clear
5:55 AM 71.6 °F - 69.8 °F 94% 30.10 in 4.0 mi North 4.6 mph - N/A   Clear
6:15 AM 71.6 °F - 69.8 °F 94% 30.10 in 5.0 mi North 4.6 mph - N/A   Scattered Clouds
6:35 AM 71.6 °F - 69.8 °F 94% 30.11 in 5.0 mi North 5.8 mph - N/A   Scattered Clouds
6:55 AM 71.6 °F - 69.8 °F 94% 30.11 in 4.0 mi North 5.8 mph - N/A   Mostly Cloudy
7:15 AM 71.6 °F - 69.8 °F 94% 30.12 in 3.0 mi NNE 5.8 mph - N/A   Overcast
7:55 AM 71.6 °F - 69.8 °F 94% 30.13 in 0.8 mi North 6.9 mph - N/A   Overcast
8:15 AM 71.6 °F - 69.8 °F 94% 30.14 in 1.0 mi North 6.9 mph - N/A   Overcast
8:35 AM 71.6 °F - 69.8 °F 94% 30.14 in 1.2 mi North 5.8 mph - N/A   Overcast
8:55 AM 71.6 °F - 69.8 °F 94% 30.13 in 2.0 mi North 8.1 mph - N/A   Overcast
9:15 AM 73.4 °F - 71.6 °F 94% 30.14 in 3.0 mi North 6.9 mph - N/A   Mostly Cloudy
9:35 AM 75.2 °F - 71.6 °F 89% 30.14 in 5.0 mi NNW 6.9 mph - N/A   Scattered Clouds
9:55 AM 78.8 °F - 71.6 °F 78% 30.14 in 10.0 mi North 5.8 mph - N/A   Scattered Clouds
10:15 AM 80.6 °F 84.6 °F 71.6 °F 74% 30.14 in 7.0 mi NNE 5.8 mph - N/A   Scattered Clouds
10:35 AM 82.4 °F 87.2 °F 71.6 °F 70% 30.14 in 7.0 mi North 5.8 mph - N/A   Clear
10:55 AM 82.4 °F 87.2 °F 71.6 °F 70% 30.14 in 10.0 mi NNE 5.8 mph - N/A   Scattered Clouds
11:15 AM 84.2 °F 89.6 °F 71.6 °F 66% 30.14 in 10.0 mi ENE 3.5 mph - N/A   Mostly Cloudy
11:55 AM 86.0 °F 91.8 °F 71.6 °F 62% 30.14 in 10.0 mi North 8.1 mph - 0.02 in   Scattered Clouds
12:15 PM 87.8 °F 92.6 °F 69.8 °F 55% 30.13 in 10.0 mi NE 5.8 mph - N/A   Scattered Clouds
12:35 PM 87.8 °F 92.6 °F 69.8 °F 55% 30.13 in 10.0 mi North 5.8 mph - N/A   Scattered Clouds
12:55 PM 87.8 °F 92.6 °F 69.8 °F 55% 30.12 in 10.0 mi North 6.9 mph - N/A   Scattered Clouds
1:15 PM 86.0 °F 90.4 °F 69.8 °F 58% 30.11 in 10.0 mi NE 5.8 mph - N/A   Mostly Cloudy
1:55 PM 80.6 °F 84.6 °F 71.6 °F 74% 30.10 in 10.0 mi NE 6.9 mph 16.1 mph N/A Thunderstorm Mostly Cloudy
2:15 PM 80.6 °F 83.9 °F 69.8 °F 70% 30.10 in 10.0 mi North 5.8 mph - N/A Thunderstorm Thunderstorm
2:35 PM 80.6 °F 83.9 °F 69.8 °F 70% 30.10 in 10.0 mi NNE 6.9 mph - N/A Rain , Thunderstorm Light Thunderstorms and Rain
2:55 PM 80.6 °F 83.9 °F 69.8 °F 70% 30.10 in 10.0 mi NE 3.5 mph - N/A Thunderstorm Mostly Cloudy
3:35 PM 78.8 °F - 68.0 °F 69% 30.10 in 10.0 mi ESE 12.7 mph - N/A   Mostly Cloudy
3:55 PM 77.0 °F - 69.8 °F 78% 30.10 in 10.0 mi East 5.8 mph - N/A   Overcast
4:15 PM 77.0 °F - 69.8 °F 78% 30.10 in 10.0 mi Calm Calm - N/A Thunderstorm Thunderstorm
4:35 PM 77.0 °F - 69.8 °F 78% 30.10 in 10.0 mi Calm Calm - N/A Rain Light Rain
4:55 PM 75.2 °F - 69.8 °F 83% 30.11 in 10.0 mi WSW 5.8 mph - N/A   Light Drizzle
5:15 PM 75.2 °F - 71.6 °F 89% 30.11 in 10.0 mi WNW 6.9 mph - N/A Rain , Thunderstorm Light Thunderstorms and Rain
5:35 PM 73.4 °F - 69.8 °F 88% 30.11 in 10.0 mi WNW 9.2 mph - N/A Rain , Thunderstorm Rain
5:55 PM 73.4 °F - 69.8 °F 88% 30.11 in 5.0 mi WNW 10.4 mph - N/A Rain Rain
6:15 PM 73.4 °F - 69.8 °F 88% 30.11 in 5.0 mi NW 9.2 mph - N/A Rain Light Rain
6:55 PM 73.4 °F - 69.8 °F 88% 30.11 in 7.0 mi NNW 9.2 mph - N/A Rain Rain
7:15 PM 73.4 °F - 69.8 °F 88% 30.11 in 7.0 mi NNW 5.8 mph - N/A Rain Rain
7:35 PM 71.6 °F - 69.8 °F 94% 30.11 in 10.0 mi NNW 8.1 mph - N/A Rain Light Rain
7:55 PM 71.6 °F - 69.8 °F 94% 30.11 in 10.0 mi NNW 5.8 mph - N/A Rain Light Rain
8:15 PM 71.6 °F - 69.8 °F 94% 30.11 in 10.0 mi North 3.5 mph - N/A   Light Drizzle
8:35 PM 71.6 °F - 69.8 °F 94% 30.12 in 10.0 mi Calm Calm - N/A   Light Drizzle
8:55 PM 71.6 °F - 69.8 °F 94% 30.14 in 10.0 mi Calm Calm - N/A   Light Drizzle
9:15 PM 71.6 °F - 69.8 °F 94% 30.14 in 10.0 mi Calm Calm - N/A   Scattered Clouds
9:35 PM 71.6 °F - 69.8 °F 94% 30.14 in 7.0 mi Calm Calm - N/A   Clear
9:55 PM 71.6 °F - 69.8 °F 94% 30.14 in 10.0 mi Calm Calm - N/A   Clear
10:15 PM 71.6 °F - 69.8 °F 94% 30.14 in 7.0 mi Calm Calm - N/A   Clear
10:35 PM 71.6 °F - 69.8 °F 94% 30.15 in 7.0 mi Calm Calm - N/A   Scattered Clouds
10:55 PM 71.6 °F - 69.8 °F 94% 30.15 in 10.0 mi NNW 3.5 mph - N/A   Clear
11:15 PM 71.6 °F - 69.8 °F 94% 30.15 in 7.0 mi NNW 3.5 mph - N/A   Clear
11:35 PM 71.6 °F - 69.8 °F 94% 30.15 in 10.0 mi North 5.8 mph - N/A   Scattered Clouds
11:55 PM 71.6 °F - 69.8 °F 94% 30.15 in 10.0 mi North 6.9 mph - N/A   Mostly Cloudy